Temp_Advection
nan nan nan nan nan nan nan nan nan nan nan nan nan nan nan nan nan nan nan nan nan nan nan nan nan nan nan nan nan nan nan nan nan nan nan nan nan nan nan nan nan nan nan nan nan nan nan
nan -0 -0 -0 -0 -0 -0 -0 -0 -0 -0 -0 -0 -0 -0 -0 -0 -0 -0 -0 -0 -0 -0 -0 0 0 -0 -1 -0 0 0 -0 -0 -0 -0 -0 -0 -0 -0 -0 -0 -1 -0 -0 -0 -0 nan
nan 0 -0 -0 0 -0 -0 -0 -0 -0 -0 -0 -0 -0 -0 -0 -0 -0 -0 -0 -0 -0 0 -0 -0 -0 -2 -1 0 0 0 -0 -0 -0 -0 -0 -0 -0 -0 -0 -0 0 -0 -0 0 -0 nan
nan -0 -0 -0 0 -0 -0 -0 -0 -0 -0 -0 -0 -0 -0 -0 -0 -0 -0 -0 -0 -0 -0 -0 -0 -0 -0 0 0 -0 -0 0 -0 -0 -0 -0 -0 -0 -0 -0 -0 0 0 0 -0 -0 nan
nan -0 -0 -0 -0 -0 -0 -0 -0 -0 -0 -0 -0 -0 -0 -0 -0 -0 -0 -0 -0 0 0 -0 0 -0 -0 -0 -0 -1 -0 -0 -0 -0 -0 0 0 -0 -1 -0 -0 0 0 0 -0 0 nan
nan -0 -0 -0 -0 -0 -0 -0 -0 -0 -0 -0 -0 -0 -0 -0 -0 -0 -0 -0 0 -0 -0 -0 -0 -0 -1 -0 -1 -0 -0 -0 0 0 -0 -0 -0 -1 -1 -1 -0 -0 -0 -1 0 -0 nan
nan -0 -0 -0 -0 -0 -0 -0 -0 -0 -0 -0 0 0 0 0 0 0 0 0 -0 -0 -3 -1 -0 -0 -0 -0 0 -0 -0 0 0 -1 -0 -1 -1 -0 -0 0 -0 -0 -0 -0 -0 -0 nan
nan -0 -0 0 -0 0 -0 0 0 0 0 0 0 0 -0 -0 0 -0 -0 0 0 -0 -1 -0 -0 -0 -0 -0 -0 -2 -0 -0 -1 -0 -0 -1 -0 0 -0 -0 -0 -0 0 -0 -0 -0 nan
nan -0 -0 -0 0 -0 -0 0 0 0 0 0 0 -0 -0 -0 -0 -0 -0 -0 -0 -0 -0 -0 -0 -0 -0 -0 -0 -1 -1 -0 -0 -0 -1 -0 0 -0 0 -0 -0 -0 -0 -0 -0 -1 nan
nan -0 -0 -0 -0 -0 -0 0 0 0 0 0 0 0 -0 -0 -0 -0 -0 0 0 -0 -0 -0 -0 -0 0 -0 -0 0 -0 -0 -0 -0 -0 -0 -0 -0 -0 -0 -0 -0 -0 -0 0 -0 nan
nan -0 -0 -0 -0 -0 -0 -0 -0 -0 -0 -0 0 0 -0 -0 0 -0 0 0 0 0 0 -0 -0 0 0 -0 -0 0 0 -0 -0 0 0 -0 -0 -0 -0 -0 0 0 -0 0 0 0 nan
nan -0 0 -0 -0 -0 -0 -0 -0 -0 -0 -0 -0 -0 -0 -0 -0 -0 -0 -0 0 -0 0 -0 -0 0 0 -1 0 -0 0 -0 0 -0 -0 -0 -0 -0 -0 -0 0 0 -0 -0 0 0 nan
nan -0 -0 -0 0 0 -0 -0 -0 -0 -0 -0 -0 -0 -0 -0 -0 -0 -0 0 0 0 -0 -0 -0 -0 -0 -0 -0 -0 -0 -0 -0 -0 -0 -0 0 -0 0 -0 0 -0 -0 -0 -0 -0 nan
nan -0 -0 -0 -0 0 0 -0 -0 -0 -0 -0 -0 -0 -0 -0 -0 -0 -0 -0 0 -0 -0 0 -0 -0 -0 0 0 0 0 -0 -0 -0 -0 -0 0 -0 -0 -0 0 -0 0 -0 0 -0 nan
nan -0 -0 -0 -0 -0 0 0 -0 -0 -0 -0 0 -0 -0 -0 -0 -0 0 0 0 -0 -0 -0 -0 0 -0 -0 -0 -0 -0 -0 -0 -0 -0 -0 0 -0 -0 -0 0 0 0 -0 0 0 nan
nan 0 -0 -0 -0 -0 -0 -0 -0 -0 -0 -0 -0 -0 -0 0 -0 -0 -0 -0 -0 -0 -0 -0 -0 -0 0 -0 -0 -0 -0 -0 -0 0 0 -0 -0 0 -0 0 0 -0 -0 -0 -0 -0 nan
nan 0 -0 -0 -0 -0 -0 -0 -0 -0 -0 -0 -0 0 -0 -0 -0 -0 -0 -0 -0 0 -0 -0 -0 -0 -0 -0 -0 -0 -0 -0 -0 -0 -0 -0 -0 0 -0 0 -0 0 0 -0 0 -0 nan
nan -0 0 -0 -0 0 -0 -0 -0 -0 -0 -0 -0 0 -0 -0 -0 -0 -0 -0 -0 -0 0 0 -0 -0 -0 -0 -0 0 -0 -0 -0 -0 0 -0 0 -0 -0 -0 -0 -0 0 0 0 -0 nan
nan -0 0 0 -0 -0 0 -0 -0 -0 -0 -0 -0 0 -0 -0 0 -0 -0 -0 -0 0 0 0 -0 -0 0 0 0 0 -0 -0 0 0 -0 -0 0 -0 0 -0 -0 -0 -0 0 0 0 nan
nan 0 0 0 0 -0 -0 -0 0 -0 -0 -0 0 -0 -0 -0 -0 -0 -0 -0 -0 0 0 0 0 0 0 0 0 0 0 0 0 0 0 -0 0 0 -0 -0 0 -0 -0 0 0 0 nan
nan 0 0 0 0 0 0 -0 -0 -0 -0 -0 0 0 0 0 -0 0 -0 -0 -0 -0 0 0 0 -0 0 0 0 0 -0 -0 -0 0 0 0 0 -0 0 0 -0 0 0 0 0 0 nan
nan -0 -0 -0 0 0 0 0 0 0 0 -0 0 0 -0 0 0 0 -0 -0 -0 -0 0 0 -0 0 0 0 -0 0 0 -0 0 0 0 0 0 -0 -0 -0 0 0 0 0 -0 0 nan
nan -1 -0 -0 0 0 0 0 0 0 0 0 0 -0 -0 -0 0 0 0 0 0 -1 0 -0 0 -0 0 0 -0 -0 -0 -0 -0 0 -0 0 0 0 -0 -0 -0 0 -0 0 -0 0 nan
nan 0 -1 -1 -0 -0 0 0 0 0 1 0 -0 0 0 0 0 0 0 0 0 0 -0 0 0 0 0 0 -0 0 -0 -0 0 0 0 0 -0 0 -0 0 0 -0 0 -0 -0 -0 nan
nan -0 -0 -1 -1 0 0 0 1 1 1 0 0 0 0 -0 -0 -0 0 -0 -0 0 -0 0 0 0 0 0 -0 0 -0 -0 0 0 0 0 0 0 -0 -0 0 -0 0 0 -0 -0 nan
nan 1 0 -1 -1 -1 -0 0 1 1 1 -0 -0 0 0 -0 0 0 -0 0 -0 -0 0 -0 0 0 0 -0 -0 0 -0 -0 -0 -0 0 0 0 0 0 -0 0 -0 0 -0 0 0 nan
nan -0 0 -0 -0 -1 -0 0 1 2 1 1 -0 0 1 -0 0 1 0 0 0 -0 -0 -0 -0 0 0 0 0 0 0 -0 0 0 0 0 0 0 0 -0 0 -0 -0 0 0 0 nan
nan -0 -1 -0 0 -0 -0 -0 0 2 2 1 -0 1 1 -0 0 1 0 0 0 0 -0 -0 -0 -0 -0 0 0 0 0 0 -0 0 -0 0 0 0 0 0 0 0 -0 0 0 -0 nan
nan nan nan nan nan nan nan nan nan nan nan nan nan nan nan nan nan nan nan nan nan nan nan nan nan nan nan nan nan nan nan nan nan nan nan nan nan nan nan nan nan nan nan nan nan nan nan
Wind_Speed
12 13 14 15 16 16 17 18 20 21 21 20 19 19 17 15 14 13 12 11 9 8 8 8 6 6 8 10 10 13 11 14 12 13 12 10 11 7 3 6 5 4 7 10 11 14 18
11 12 13 14 15 15 17 18 20 22 21 20 18 18 16 15 13 12 11 11 11 11 7 6 5 5 4 8 12 9 10 12 11 10 11 11 7 7 5 7 7 8 12 10 9 12 5
10 11 12 13 14 15 17 19 21 22 22 20 18 17 15 14 12 10 8 6 7 8 11 12 7 9 18 9 12 11 7 11 11 10 8 8 6 6 6 3 4 8 5 6 3 1 4
9 10 11 12 14 16 18 19 21 21 21 19 18 18 16 13 10 9 8 8 6 5 4 5 8 7 7 8 11 6 7 5 8 9 9 8 7 7 5 3 4 3 6 5 3 3 3
8 9 10 11 13 14 16 19 20 20 19 18 17 17 15 12 9 10 10 7 8 7 8 5 8 3 4 9 14 22 12 13 8 8 9 8 6 7 9 5 4 4 4 3 5 4 4
7 8 9 10 12 13 16 19 20 19 18 17 15 15 14 10 9 9 9 8 9 3 3 6 4 2 9 10 12 23 10 15 7 8 3 8 4 4 9 7 2 5 5 7 7 4 5
7 7 9 10 12 14 16 20 19 18 17 16 15 15 14 9 7 8 4 4 5 3 24 11 7 7 7 11 7 22 14 10 8 14 5 8 9 7 8 8 6 5 6 8 7 10 3
7 8 9 10 12 14 16 19 19 18 17 17 15 14 14 9 5 11 3 2 3 8 11 9 9 10 9 10 3 25 14 8 15 8 4 6 6 4 4 4 7 6 7 7 3 3 8
7 8 8 10 12 14 17 18 17 16 16 17 16 15 14 11 6 10 7 3 11 12 3 5 9 8 11 9 8 17 17 6 6 8 10 7 3 1 1 7 9 6 5 5 7 13 11
8 8 9 10 11 14 17 18 18 18 19 19 17 14 12 11 5 9 5 8 10 2 3 2 4 6 11 2 5 16 13 5 4 6 7 7 3 2 2 5 7 3 7 8 11 8 4
7 7 8 8 10 13 17 17 18 19 21 22 20 17 13 10 7 7 5 7 4 1 2 4 3 4 9 8 8 12 16 10 5 6 3 3 5 6 5 3 3 5 11 13 10 9 8
8 8 8 8 8 11 14 15 17 19 20 21 20 17 12 9 6 7 2 5 4 1 3 2 1 4 1 11 5 7 8 9 1 1 8 4 4 4 3 8 4 8 10 19 11 4 3
8 7 7 7 8 9 10 12 15 16 19 20 19 15 9 9 6 4 5 7 1 1 2 2 1 4 3 5 4 6 4 8 5 4 2 5 4 2 6 4 5 7 9 3 3 0 4
8 10 9 9 9 10 12 14 16 18 20 21 21 11 5 10 8 2 7 2 1 1 3 1 0 2 1 4 2 3 3 2 9 7 3 5 2 1 3 2 3 6 3 2 4 3 6
9 9 10 10 10 11 12 13 16 19 23 26 25 12 4 14 8 1 2 1 1 3 2 2 3 4 4 3 2 3 4 3 4 7 5 5 1 3 3 2 3 4 1 3 3 8 3
12 12 11 12 11 11 12 13 15 17 20 23 22 10 3 14 7 1 1 3 2 2 1 2 3 1 3 3 3 4 3 3 4 4 4 4 5 2 4 3 4 3 1 1 2 3 5
15 15 15 13 12 13 14 13 15 14 18 22 16 5 4 11 4 3 2 3 3 2 1 3 4 2 2 3 1 3 5 3 1 4 2 2 3 2 2 4 3 2 2 2 2 2 3
21 19 19 17 15 15 15 14 14 13 15 17 9 4 6 6 2 4 2 2 3 5 1 2 1 3 3 3 2 0 2 4 4 1 1 4 2 4 2 6 4 3 3 3 1 6 6
24 24 23 21 19 16 15 15 15 13 14 16 9 4 4 3 2 3 4 3 3 2 1 2 2 1 0 1 1 2 3 6 5 2 3 3 2 4 3 3 4 2 6 6 5 4 10
28 25 25 25 24 21 18 16 15 14 11 11 5 2 1 2 3 3 4 4 4 1 3 1 3 2 2 4 3 1 4 5 5 4 3 1 4 5 4 4 4 7 9 6 3 3 8
29 25 27 26 25 24 22 18 17 14 12 6 3 4 2 1 2 4 2 6 4 4 3 7 4 6 5 3 3 4 2 6 10 7 5 3 4 6 8 6 7 12 14 5 6 8 7
30 29 29 30 30 28 25 22 20 16 12 10 5 4 2 3 4 5 3 7 8 3 7 4 3 8 4 3 1 1 3 4 3 10 5 7 3 8 10 11 14 9 8 9 10 9 6
25 31 36 35 35 31 27 26 22 19 15 9 10 9 5 8 4 3 4 4 6 14 2 1 6 5 5 2 2 1 3 4 1 2 5 4 2 4 4 5 11 8 3 3 1 4 5
37 29 27 35 37 32 30 26 22 20 21 19 15 10 7 4 5 4 5 4 6 7 4 5 4 3 4 3 1 3 6 7 8 8 8 3 3 4 5 9 4 3 5 4 1 6 7
27 32 35 28 29 27 29 29 29 25 21 22 21 15 9 3 6 5 12 7 12 9 5 7 3 5 8 3 2 3 3 3 6 7 6 8 1 3 3 3 10 2 3 1 3 5 5
38 30 34 31 31 30 31 29 28 26 20 21 21 20 9 9 5 8 10 17 5 4 4 4 5 8 6 3 2 2 2 2 4 5 1 3 4 2 3 3 4 2 5 4 0 3 5
31 38 39 36 31 32 31 26 29 29 24 23 18 22 14 7 8 14 4 8 7 8 3 6 7 5 6 3 3 3 2 2 2 3 5 3 3 9 8 6 4 4 6 2 0 2 10
24 29 30 37 35 28 32 32 29 29 22 20 19 21 16 7 11 9 9 7 9 11 4 10 6 3 3 2 2 2 1 2 1 2 3 5 2 4 4 2 6 8 3 2 3 8 9
29 27 27 30 34 27 32 33 25 30 25 21 17 17 13 7 7 8 9 11 12 13 10 16 3 5 7 2 0 2 1 2 0 3 2 2 4 3 4 1 6 4 5 7 8 5 11
Wind_Direction
34 29 27 25 24 21 17 12 9 7 4 4 6 5 6 5 8 11 24 36 46 57 74 102 120 43 63 56 20 4 18 18 33 36 38 23 32 351 323 4 330 304 103 75 86 72 66
30 28 26 23 21 17 14 11 8 6 7 6 8 7 8 8 15 21 32 51 63 53 71 87 77 71 46 75 360 5 14 5 20 47 9 45 4 337 341 41 18 27 101 102 87 81 75
28 23 24 21 17 13 11 10 9 6 5 5 6 7 10 13 21 26 25 25 28 43 82 98 54 49 70 71 358 3 359 359 12 19 13 24 30 32 357 87 11 137 125 133 103 32 70
21 21 19 16 14 11 9 8 5 3 3 4 6 6 8 15 26 35 32 28 32 65 68 57 76 44 80 29 10 352 21 310 9 11 13 17 35 55 39 333 214 228 215 225 78 356 158
20 17 15 14 12 9 9 7 4 5 7 7 7 7 5 13 33 37 31 34 57 78 59 77 62 113 69 342 359 13 3 14 18 354 16 22 56 74 24 315 268 172 270 269 142 90 18
15 9 7 9 8 8 7 6 6 7 9 8 8 9 6 358 10 356 4 65 54 347 49 57 57 39 22 346 358 357 4 33 2 359 32 33 39 79 30 8 53 339 341 349 338 142 61
6 4 1 3 3 6 6 4 4 6 8 7 5 5 6 354 0 349 318 294 327 5 61 74 57 82 21 12 19 11 30 43 37 41 36 25 60 50 22 14 342 313 316 289 297 24 21
358 359 358 358 2 5 5 2 5 6 6 6 3 0 1 4 348 5 12 216 182 138 96 61 64 61 27 27 21 8 44 58 51 54 348 52 82 41 327 32 339 266 279 297 340 48 319
352 354 355 357 1 4 2 3 6 9 8 6 5 2 1 360 358 7 22 115 139 131 110 51 41 32 18 16 42 1 19 32 12 44 58 80 71 278 317 57 355 343 339 5 298 324 271
350 352 356 358 1 6 4 5 7 8 6 5 6 5 4 3 16 2 36 138 143 128 187 57 6 17 2 69 55 8 21 13 69 48 79 79 46 23 31 59 10 296 13 321 309 320 287
349 350 354 359 5 8 8 11 12 9 6 3 2 3 6 10 360 358 333 188 187 88 349 52 32 26 24 63 337 6 9 48 51 22 264 76 58 6 61 11 330 276 331 287 271 268 293
358 352 353 355 1 8 14 16 14 11 8 3 358 355 4 11 9 357 1 159 166 323 275 86 75 3 208 50 37 351 21 30 93 31 29 92 99 52 347 294 210 284 293 286 243 233 270
4 0 353 346 347 354 4 7 8 7 4 1 356 350 353 7 354 7 129 124 2 234 95 78 4 7 108 24 43 20 68 44 24 349 62 157 104 114 355 332 173 353 327 342 348 255 237
343 351 349 344 336 338 343 351 354 355 355 354 350 350 3 2 360 20 153 171 118 90 78 148 270 232 16 346 111 2 289 90 42 349 304 346 285 39 9 80 299 295 334 111 266 306 286
308 320 330 334 335 329 332 336 341 346 350 349 349 344 16 5 2 63 139 189 198 35 32 342 179 253 142 162 244 226 61 92 38 21 34 350 136 135 68 346 356 345 55 67 273 240 253
286 299 305 315 318 322 324 329 332 337 341 344 345 346 10 359 3 58 38 69 86 43 351 241 288 303 330 79 284 23 110 75 121 38 334 65 299 121 138 215 219 295 9 166 187 294 299
265 281 290 297 304 317 320 325 328 331 335 340 339 330 337 352 29 53 97 95 121 118 25 352 4 307 86 6 7 343 68 117 71 139 317 71 142 178 172 194 61 203 247 248 284 168 231
266 272 276 282 287 299 309 316 326 328 333 338 334 298 318 340 69 34 85 68 118 140 123 124 44 24 9 40 282 228 56 87 110 66 295 76 330 281 354 80 72 356 302 317 220 293 319
263 266 273 274 278 283 294 302 314 319 330 336 318 266 302 330 226 117 139 92 61 152 97 170 112 8 100 149 264 125 125 133 161 221 10 106 197 295 144 116 11 256 233 231 248 242 265
259 259 265 278 278 282 282 286 297 307 314 326 303 291 298 71 75 105 153 164 147 127 122 151 116 164 182 210 159 126 199 169 174 223 145 94 245 224 231 277 303 285 295 296 257 271 289
261 266 267 269 272 272 278 282 282 290 297 298 233 251 214 256 95 100 126 146 145 187 225 192 161 228 191 215 198 210 168 144 188 208 178 212 262 270 273 283 286 270 273 271 267 255 267
280 276 274 274 274 269 273 277 272 269 266 253 216 187 175 145 154 148 145 201 181 122 162 198 246 162 200 230 23 205 180 185 219 168 183 186 269 315 287 273 263 271 264 235 245 283 280
286 268 270 269 266 264 265 269 269 262 253 242 228 214 184 167 179 182 199 161 183 142 192 34 198 134 209 260 74 333 270 308 20 171 195 207 256 327 262 331 321 303 284 127 38 284 288
282 289 275 270 263 256 262 266 262 255 245 236 236 203 177 201 184 194 153 126 156 167 125 160 168 193 159 169 318 270 249 252 250 233 234 269 323 253 277 292 262 210 59 36 279 285 291
292 291 288 282 274 268 264 263 260 254 239 233 234 214 188 161 151 132 145 129 110 122 116 153 135 156 144 132 260 245 181 209 220 213 212 223 188 277 267 281 282 116 158 158 76 288 69
275 291 291 290 276 276 268 277 265 253 244 232 230 222 201 146 188 145 150 165 144 152 147 118 161 164 151 212 212 243 262 59 168 147 198 232 212 199 330 317 283 168 128 94 267 271 105
273 276 285 287 282 276 276 270 261 248 229 219 229 216 203 135 146 152 156 183 172 160 114 136 165 172 180 193 219 216 239 36 252 210 174 189 214 221 234 243 260 111 115 190 173 254 327
276 271 278 280 282 287 282 269 263 252 228 213 214 208 201 149 152 172 162 151 162 169 152 136 123 191 166 213 189 197 193 199 354 254 191 174 194 209 204 254 265 144 161 185 264 316 321
266 273 271 271 272 277 279 284 269 255 223 207 210 193 194 180 157 173 173 174 175 171 150 162 141 133 171 166 81 48 176 126 212 270 15 303 178 202 154 248 154 181 245 296 297 313 318
Height
1571 1570 1568 1567 1565 1564 1562 1560 1557 1553 1550 1546 1543 1539 1536 1534 1531 1528 1526 1525 1524 1523 1523 1524 1524 1524 1524 1525 1532 1529 1527 1525 1523 1522 1520 1520 1520 1520 1517 1518 1520 1520 1527 1529 1532 1532 1533
1572 1571 1570 1568 1567 1565 1563 1560 1557 1553 1550 1546 1543 1540 1537 1534 1532 1530 1528 1527 1526 1526 1525 1525 1526 1526 1527 1530 1533 1530 1528 1526 1523 1522 1521 1521 1523 1523 1522 1523 1524 1526 1528 1532 1536 1538 1537
1573 1572 1570 1569 1567 1566 1563 1560 1557 1554 1550 1547 1544 1541 1538 1535 1533 1531 1529 1529 1528 1528 1527 1527 1527 1527 1527 1536 1534 1530 1528 1526 1524 1523 1522 1522 1522 1523 1524 1524 1529 1529 1532 1534 1534 1533 1537
1573 1572 1571 1569 1567 1566 1563 1561 1558 1554 1550 1547 1545 1542 1539 1536 1534 1532 1531 1530 1530 1529 1529 1528 1528 1528 1533 1535 1533 1530 1528 1526 1525 1525 1524 1524 1523 1524 1525 1527 1526 1526 1527 1527 1535 1534 1537
1574 1573 1571 1569 1567 1566 1563 1560 1557 1553 1550 1547 1545 1543 1540 1537 1535 1533 1532 1531 1531 1530 1530 1529 1529 1530 1537 1536 1533 1531 1528 1526 1525 1526 1525 1525 1524 1526 1527 1526 1526 1522 1527 1521 1537 1537 1539
1574 1573 1571 1569 1567 1565 1563 1560 1556 1553 1550 1547 1545 1542 1540 1538 1535 1534 1533 1532 1532 1531 1530 1530 1531 1534 1538 1538 1535 1532 1528 1527 1527 1526 1527 1527 1527 1531 1539 1537 1540 1548 1540 1533 1534 1539 1539
1574 1573 1571 1569 1567 1565 1563 1560 1557 1553 1550 1548 1545 1542 1540 1537 1536 1534 1533 1533 1534 1534 1530 1539 1541 1540 1541 1539 1537 1534 1528 1529 1528 1529 1531 1532 1541 1553 1552 1550 1548 1546 1546 1543 1535 1537 1540
1574 1573 1572 1570 1568 1565 1562 1559 1556 1554 1551 1547 1544 1542 1539 1537 1536 1533 1532 1533 1532 1536 1541 1542 1542 1541 1541 1539 1537 1535 1531 1532 1533 1536 1532 1540 1552 1553 1551 1550 1549 1545 1542 1541 1537 1538 1541
1575 1573 1571 1570 1568 1566 1563 1559 1556 1553 1550 1547 1544 1541 1539 1537 1535 1534 1532 1532 1533 1535 1538 1544 1543 1541 1542 1542 1543 1541 1537 1537 1538 1538 1540 1542 1552 1551 1550 1550 1552 1546 1546 1552 1554 1545 1539
1575 1573 1572 1570 1569 1566 1563 1560 1557 1554 1551 1548 1544 1541 1539 1536 1536 1534 1533 1534 1535 1536 1537 1545 1544 1545 1544 1542 1546 1545 1542 1542 1540 1544 1545 1551 1552 1551 1549 1552 1556 1554 1554 1553 1553 1555 1552
1575 1574 1572 1570 1568 1567 1564 1561 1557 1554 1552 1548 1545 1542 1539 1536 1536 1535 1536 1535 1536 1537 1540 1547 1547 1546 1547 1547 1551 1548 1547 1545 1547 1548 1546 1555 1555 1555 1553 1559 1558 1553 1551 1550 1550 1551 1551
1575 1573 1572 1570 1568 1566 1563 1560 1558 1554 1551 1547 1544 1541 1538 1536 1535 1536 1534 1534 1538 1540 1541 1547 1548 1547 1546 1550 1551 1552 1550 1549 1550 1548 1549 1554 1557 1558 1560 1557 1555 1554 1550 1538 1539 1545 1562
1575 1572 1571 1569 1567 1565 1562 1559 1557 1554 1550 1546 1543 1540 1537 1536 1535 1533 1534 1536 1540 1540 1549 1548 1549 1550 1549 1552 1552 1553 1554 1556 1559 1555 1548 1557 1558 1560 1559 1555 1554 1554 1553 1547 1557 1567 1539
1575 1573 1571 1568 1567 1565 1563 1560 1557 1554 1550 1546 1542 1539 1537 1535 1534 1533 1533 1536 1537 1539 1543 1550 1550 1549 1547 1554 1554 1553 1551 1555 1560 1559 1558 1559 1557 1561 1562 1562 1565 1561 1557 1570 1590 1566 1559
1573 1572 1570 1568 1565 1563 1561 1559 1557 1554 1551 1547 1543 1539 1537 1535 1533 1533 1535 1535 1538 1545 1549 1549 1548 1547 1549 1553 1555 1552 1558 1563 1568 1566 1569 1568 1557 1564 1564 1564 1564 1560 1559 1561 1573 1559 1566
1571 1570 1568 1566 1564 1561 1559 1557 1555 1552 1550 1547 1543 1538 1537 1536 1534 1533 1535 1542 1547 1551 1551 1551 1544 1548 1542 1550 1552 1549 1553 1566 1569 1569 1567 1569 1574 1560 1564 1565 1565 1565 1564 1570 1569 1582 1561
1566 1567 1566 1564 1562 1561 1558 1555 1553 1550 1548 1546 1542 1539 1537 1535 1533 1534 1538 1547 1550 1552 1552 1553 1550 1550 1552 1554 1556 1554 1559 1568 1567 1568 1567 1567 1574 1564 1563 1564 1564 1567 1567 1564 1564 1570 1592
1564 1563 1562 1562 1559 1557 1557 1554 1551 1548 1545 1543 1541 1540 1536 1535 1537 1538 1542 1546 1549 1551 1552 1552 1552 1554 1555 1558 1556 1555 1557 1562 1567 1569 1566 1567 1570 1576 1558 1563 1565 1567 1567 1568 1577 1579 1565
1560 1559 1558 1559 1557 1554 1552 1552 1549 1545 1543 1542 1538 1536 1536 1535 1535 1541 1547 1549 1550 1552 1552 1553 1554 1555 1556 1555 1557 1556 1559 1564 1564 1566 1567 1568 1570 1577 1567 1567 1568 1571 1564 1562 1562 1563 1567
1553 1553 1554 1554 1554 1552 1548 1546 1546 1545 1540 1540 1540 1535 1534 1532 1536 1536 1542 1545 1549 1551 1551 1552 1552 1556 1556 1558 1556 1556 1559 1565 1565 1566 1568 1569 1569 1569 1577 1563 1561 1562 1557 1558 1563 1570 1563
1547 1548 1548 1548 1549 1548 1547 1543 1541 1540 1540 1537 1536 1535 1532 1533 1534 1536 1537 1541 1545 1550 1551 1551 1551 1552 1552 1553 1556 1556 1556 1562 1563 1565 1567 1569 1569 1565 1561 1561 1559 1558 1554 1555 1559 1562 1564
1542 1543 1542 1542 1543 1542 1541 1541 1537 1535 1534 1536 1529 1531 1534 1533 1534 1535 1536 1538 1539 1546 1550 1550 1550 1548 1552 1551 1549 1555 1556 1558 1557 1561 1564 1563 1567 1562 1560 1552 1548 1550 1546 1548 1548 1547 1550
1534 1535 1536 1535 1535 1534 1534 1534 1533 1531 1528 1529 1525 1523 1526 1532 1534 1534 1530 1531 1534 1538 1545 1544 1544 1548 1552 1552 1551 1553 1556 1556 1556 1557 1559 1560 1563 1564 1560 1548 1548 1557 1550 1541 1546 1547 1550
1527 1528 1528 1528 1526 1527 1526 1527 1525 1524 1523 1522 1523 1521 1521 1523 1528 1530 1530 1531 1534 1536 1540 1544 1545 1545 1551 1551 1552 1554 1557 1557 1557 1555 1556 1557 1562 1563 1562 1554 1567 1550 1547 1547 1548 1548 1547
1518 1521 1521 1520 1518 1518 1518 1518 1518 1517 1516 1515 1517 1518 1516 1517 1521 1526 1528 1532 1537 1538 1540 1543 1546 1546 1547 1551 1552 1550 1554 1556 1552 1551 1553 1555 1562 1565 1565 1558 1543 1552 1547 1548 1549 1548 1547
1511 1513 1516 1514 1512 1511 1512 1512 1511 1511 1511 1511 1512 1512 1513 1512 1519 1520 1526 1529 1533 1539 1543 1543 1546 1548 1547 1546 1549 1551 1547 1544 1549 1553 1553 1554 1556 1565 1559 1565 1554 1548 1548 1549 1550 1556 1547
1499 1504 1510 1509 1507 1505 1504 1504 1504 1504 1504 1506 1507 1508 1510 1509 1515 1519 1524 1527 1528 1533 1538 1542 1545 1548 1549 1545 1546 1547 1545 1548 1550 1545 1558 1556 1558 1558 1557 1557 1548 1548 1549 1549 1551 1552 1548
1489 1495 1500 1503 1502 1499 1498 1498 1498 1497 1500 1504 1501 1503 1505 1505 1513 1516 1520 1523 1526 1530 1533 1539 1545 1546 1547 1547 1545 1545 1550 1554 1556 1545 1549 1555 1555 1552 1548 1551 1557 1548 1549 1553 1548 1544 1544
1486 1487 1490 1494 1495 1494 1492 1493 1492 1492 1495 1499 1500 1499 1499 1507 1511 1516 1519 1521 1523 1526 1529 1533 1536 1536 1540 1542 1544 1545 1548 1553 1552 1563 1546 1559 1550 1556 1555 1547 1543 1545 1545 1545 1543 1542 1542